Location: �perlecques
(50.8057°N, 2.1521°E)
Time: 21:08:20
(UTC+00:00)

Tiros 1 - Pass Details

Date: 08 August 2021
Orbit: 630 x 663 km, 48.4° (Epoch: 28 September)

Event Time Altitude Azimuth Distance (km) Brightness Sun altitude
Rises 19:21:13 0° 277° (W) 2,988 12.2 -0.3°
Reaches altitude 10° 19:23:38 10° 272° (W) 2,071 11.1 -0.7°
Maximum altitude 19:28:14 50° 198° (SSW) 835 7.7 -1.3°
Drops below altitude 10° 19:32:48 10° 123° (ESE) 2,046 9.1 -2.0°
Enters shadow 19:34:28 - 119° (ESE) 2,678 9.6 -2.2°
Sets 19:35:10 0° 118° (ESE) 2,949 - -2.3°
